This is the latest recevied weather packets stored in our database for station/object RV1CJ-14. If no packets are shown the sender has not sent any weather packets the latest 10 day(s).
| Time | Temp. | Humidity | Pressure | Rain* | Wind** | Luminosity | Snow |
|---|---|---|---|---|---|---|---|
| 1777569603 | 5.56° C | 86% | 1016.8 hPa | 0 mm | - | 0 W/m² | - |
| 1777569003 | 5.56° C | 86% | 1016.7 hPa | 0 mm | - | 5 W/m² | - |
| 1777568403 | 5.56° C | 85% | 1016.7 hPa | 0 mm | - | 5 W/m² | - |
| 1777567803 | 5.56° C | 85% | 1016.7 hPa | 0 mm | - | 7 W/m² | - |
| 1777567203 | 5.56° C | 85% | 1016.8 hPa | 0 mm | - | 9 W/m² | - |
| 1777566603 | 5.56° C | 85% | 1016.7 hPa | 0 mm | - | 9 W/m² | - |
| 1777566003 | 5.56° C | 84% | 1016.6 hPa | 0 mm | - | 11 W/m² | - |
| 1777565404 | 5.56° C | 84% | 1016.6 hPa | 0 mm | - | 12 W/m² | - |
| 1777564803 | 5.56° C | 84% | 1016.7 hPa | 0 mm | - | 25 W/m² | - |
| 1777564204 | 5.56° C | 83% | 1016.8 hPa | 0 mm | - | 21 W/m² | - |
| 1777563603 | 5.56° C | 83% | 1016.7 hPa | 0 mm | - | 21 W/m² | - |
| 1777563003 | 5.56° C | 83% | 1016.6 hPa | 0 mm | - | 25 W/m² | - |
| 1777562403 | 5.56° C | 82% | 1016.6 hPa | 0 mm | - | 26 W/m² | - |
| 1777561804 | 5.56° C | 81% | 1016.6 hPa | 0 mm | - | 30 W/m² | - |
| 1777561204 | 5.56° C | 81% | 1016.6 hPa | 0 mm | - | 28 W/m² | - |
| 1777560603 | 5.56° C | 80% | 1016.8 hPa | 0 mm | - | 28 W/m² | - |
| 1777560003 | 6.11° C | 80% | 1016.8 hPa | 0 mm | - | 35 W/m² | - |
| 1777559404 | 6.11° C | 80% | 1016.7 hPa | 0 mm | - | 49 W/m² | - |
| 1777558803 | 6.11° C | 80% | 1016.8 hPa | 0 mm | - | 46 W/m² | - |
| 1777558203 | 6.11° C | 80% | 1016.8 hPa | 0 mm | - | 53 W/m² | - |
| 1777557604 | 6.11° C | 80% | 1016.9 hPa | 0 mm | - | 88 W/m² | - |
| 1777557003 | 5.56° C | 79% | 1017 hPa | 0 mm | - | 95 W/m² | - |
| 1777556404 | 5.56° C | 79% | 1016.9 hPa | 0 mm | - | 86 W/m² | - |
| 1777555803 | 5.56° C | 78% | 1016.8 hPa | 0 mm | - | 77 W/m² | - |
| 1777555203 | 5.56° C | 77% | 1016.9 hPa | 0 mm | - | 81 W/m² | - |
* Rain latest hour (hover to see other rain measurements)
** Current wind speed in m/s (hover to see current wind gust speed)